Location: Namasale
(1.5000°N, 32.6167°E)
Time: 22:51:22
(UTC+00:00)

Vanguard 3 - Pass Details

Date: 27 April 2021
Orbit: 507 x 3262 km, 33.4° (Epoch: 16 May)

Event Time Altitude Azimuth Distance (km) Brightness Sun altitude
Rises 20:04:27 0° 271° (W) 6,383 12.1 -60.2°
Reaches altitude 10° 20:11:31 10° 289° (WNW) 4,768 11.3 -61.6°
Enters shadow 20:18:14 16° 321° (NW) 3,587 10.6 -63.0°
